TimeEST,TemperatureF,Dew PointF,Humidity,Sea Level PressureIn,VisibilityMPH,Wind Direction,Wind SpeedMPH,Gust SpeedMPH,PrecipitationIn,Events,Conditions,WindDirDegrees,DateUTC
12:17 AM,51.8,46.4,82,29.80,10.0,South,12.7,-,N/A,,Overcast,190,2012-11-23 05:17:00
12:36 AM,51.8,46.4,82,29.79,10.0,SSW,15.0,-,N/A,,Scattered Clouds,200,2012-11-23 05:36:00
12:57 AM,51.8,44.6,76,29.78,10.0,SSW,12.7,18.4,N/A,,Clear,200,2012-11-23 05:57:00
1:16 AM,51.8,44.6,76,29.77,10.0,South,12.7,20.7,N/A,,Clear,190,2012-11-23 06:16:00
1:36 AM,51.8,44.6,76,29.76,10.0,SSW,12.7,17.3,N/A,,Mostly Cloudy,200,2012-11-23 06:36:00
1:57 AM,51.8,44.6,76,29.75,10.0,South,13.8,-,N/A,,Overcast,190,2012-11-23 06:57:00
2:16 AM,51.8,44.6,76,29.74,10.0,South,16.1,-,N/A,,Overcast,190,2012-11-23 07:16:00
2:36 AM,51.8,44.6,76,29.74,10.0,South,12.7,21.9,N/A,,Overcast,190,2012-11-23 07:36:00
2:56 AM,51.8,44.6,76,29.73,10.0,South,10.4,-,N/A,,Overcast,190,2012-11-23 07:56:00
3:16 AM,51.8,44.6,76,29.72,10.0,South,11.5,16.1,N/A,Rain,Light Rain,190,2012-11-23 08:16:00
3:36 AM,50.0,46.4,87,29.71,7.0,SSW,10.4,17.3,N/A,Rain,Rain,200,2012-11-23 08:36:00
3:56 AM,50.0,46.4,87,29.71,7.0,SSW,9.2,-,N/A,Rain,Rain,200,2012-11-23 08:56:00
4:16 AM,50.0,46.4,87,29.70,5.0,SSW,6.9,-,N/A,Rain,Rain,200,2012-11-23 09:16:00
4:37 AM,50.0,48.2,94,29.69,5.0,SSW,10.4,-,N/A,Rain,Rain,200,2012-11-23 09:37:00
4:56 AM,50.0,48.2,94,29.68,5.0,SSW,10.4,-,N/A,Rain,Light Rain,210,2012-11-23 09:56:00
5:16 AM,50.0,48.2,94,29.67,5.0,SSW,9.2,-,N/A,,Overcast,200,2012-11-23 10:16:00
5:36 AM,50.0,48.2,94,29.67,5.0,SSW,11.5,-,N/A,,Overcast,200,2012-11-23 10:36:00
5:56 AM,50.0,48.2,94,29.67,5.0,SSW,11.5,16.1,N/A,,Overcast,200,2012-11-23 10:56:00
6:17 AM,50.0,48.2,94,29.66,5.0,SSW,9.2,-,N/A,,Overcast,200,2012-11-23 11:17:00
6:36 AM,51.8,50.0,94,29.66,5.0,SSW,10.4,16.1,N/A,,Overcast,210,2012-11-23 11:36:00
6:56 AM,51.8,48.2,88,29.67,7.0,SW,10.4,16.1,N/A,,Overcast,230,2012-11-23 11:56:00
7:16 AM,50.0,44.6,82,29.69,10.0,West,11.5,23.0,N/A,,Overcast,270,2012-11-23 12:16:00
7:36 AM,48.2,41.0,76,29.70,10.0,WSW,5.8,-,N/A,,Mostly Cloudy,250,2012-11-23 12:36:00
7:57 AM,46.4,41.0,81,29.70,10.0,WSW,8.1,-,N/A,,Scattered Clouds,250,2012-11-23 12:57:00
8:16 AM,46.4,39.2,76,29.71,10.0,West,5.8,-,N/A,,Mostly Cloudy,260,2012-11-23 13:16:00
8:36 AM,46.4,39.2,76,29.72,10.0,WSW,10.4,16.1,N/A,,Overcast,240,2012-11-23 13:36:00
8:57 AM,44.6,33.8,66,29.73,10.0,West,9.2,18.4,N/A,,Mostly Cloudy,270,2012-11-23 13:57:00
9:16 AM,44.6,33.8,66,29.74,10.0,West,9.2,17.3,N/A,,Overcast,270,2012-11-23 14:16:00
9:37 AM,44.6,33.8,66,29.74,10.0,West,9.2,16.1,N/A,,Overcast,260,2012-11-23 14:37:00
9:56 AM,44.6,32.0,61,29.74,10.0,West,9.2,16.1,N/A,,Overcast,270,2012-11-23 14:56:00
10:16 AM,44.6,32.0,61,29.74,10.0,WSW,10.4,16.1,N/A,,Overcast,240,2012-11-23 15:16:00
10:37 AM,44.6,30.2,57,29.74,10.0,WSW,15.0,24.2,N/A,,Overcast,250,2012-11-23 15:37:00
10:56 AM,44.6,32.0,61,29.73,10.0,West,9.2,21.9,N/A,,Overcast,260,2012-11-23 15:56:00
11:17 AM,44.6,32.0,61,29.73,10.0,WSW,10.4,19.6,N/A,,Overcast,250,2012-11-23 16:17:00
11:36 AM,44.6,32.0,61,29.73,10.0,West,12.7,21.9,N/A,,Overcast,260,2012-11-23 16:36:00
11:56 AM,44.6,32.0,61,29.72,10.0,WSW,11.5,18.4,N/A,,Overcast,240,2012-11-23 16:56:00
12:17 PM,44.6,32.0,61,29.72,10.0,West,8.1,-,N/A,,Overcast,260,2012-11-23 17:17:00
12:36 PM,42.8,30.2,61,29.72,10.0,West,11.5,21.9,N/A,,Overcast,270,2012-11-23 17:36:00
12:57 PM,41.0,32.0,70,29.72,10.0,West,11.5,20.7,N/A,,Overcast,270,2012-11-23 17:57:00
1:16 PM,41.0,30.2,65,29.72,10.0,WSW,13.8,24.2,N/A,,Overcast,250,2012-11-23 18:16:00
1:36 PM,41.0,30.2,65,29.72,10.0,WSW,8.1,21.9,N/A,,Overcast,250,2012-11-23 18:36:00
1:57 PM,41.0,30.2,65,29.73,10.0,West,13.8,23.0,N/A,,Overcast,280,2012-11-23 18:57:00
2:16 PM,37.4,32.0,81,29.74,5.0,West,10.4,17.3,N/A,Rain,Light Rain,270,2012-11-23 19:16:00
2:36 PM,37.4,30.2,75,29.74,10.0,West,15.0,24.2,N/A,,Overcast,270,2012-11-23 19:36:00
2:56 PM,37.4,28.4,70,29.75,10.0,West,10.4,27.6,N/A,,Overcast,270,2012-11-23 19:56:00
3:16 PM,37.4,26.6,65,29.77,10.0,West,12.7,23.0,N/A,,Overcast,260,2012-11-23 20:16:00
3:37 PM,35.6,24.8,65,29.79,10.0,West,11.5,27.6,N/A,,Overcast,270,2012-11-23 20:37:00
3:56 PM,35.6,24.8,65,29.80,10.0,West,12.7,23.0,N/A,,Overcast,270,2012-11-23 20:56:00
4:17 PM,35.6,26.6,70,29.81,10.0,West,9.2,18.4,N/A,Snow,Light Snow,260,2012-11-23 21:17:00
4:36 PM,33.8,26.6,75,29.82,10.0,West,10.4,17.3,N/A,,Overcast,260,2012-11-23 21:36:00
4:56 PM,33.8,26.6,75,29.82,10.0,West,6.9,16.1,N/A,,Overcast,260,2012-11-23 21:56:00
5:17 PM,35.6,24.8,65,29.83,10.0,WSW,10.4,16.1,N/A,,Overcast,250,2012-11-23 22:17:00
5:36 PM,35.6,26.6,70,29.84,10.0,West,9.2,18.4,N/A,,Overcast,270,2012-11-23 22:36:00
5:56 PM,35.6,26.6,70,29.84,7.0,West,10.4,-,N/A,Snow,Light Snow,260,2012-11-23 22:56:00
6:17 PM,33.8,28.4,81,29.85,7.0,West,11.5,19.6,N/A,Snow,Light Snow,260,2012-11-23 23:17:00
6:36 PM,33.8,26.6,75,29.86,10.0,West,10.4,19.6,N/A,,Mostly Cloudy,260,2012-11-23 23:36:00
6:57 PM,33.8,24.8,70,29.87,10.0,West,11.5,20.7,N/A,,Scattered Clouds,270,2012-11-23 23:57:00
7:16 PM,33.8,24.8,70,29.87,10.0,West,9.2,-,N/A,,Mostly Cloudy,260,2012-11-24 00:16:00
7:36 PM,35.6,24.8,65,29.88,10.0,West,11.5,17.3,N/A,,Overcast,270,2012-11-24 00:36:00
7:57 PM,33.8,24.8,70,29.88,10.0,West,9.2,24.2,N/A,,Overcast,260,2012-11-24 00:57:00
8:16 PM,33.8,24.8,70,29.89,10.0,West,12.7,21.9,N/A,,Overcast,270,2012-11-24 01:16:00
8:37 PM,33.8,24.8,70,29.89,10.0,West,10.4,24.2,N/A,,Overcast,270,2012-11-24 01:37:00
8:56 PM,33.8,24.8,70,29.89,10.0,West,17.3,25.3,N/A,,Overcast,270,2012-11-24 01:56:00
9:16 PM,33.8,23.0,65,29.90,10.0,West,15.0,26.5,N/A,,Overcast,270,2012-11-24 02:16:00
9:37 PM,35.6,23.0,60,29.90,10.0,West,10.4,18.4,N/A,,Overcast,280,2012-11-24 02:37:00
9:56 PM,33.8,23.0,65,29.91,10.0,West,8.1,20.7,N/A,,Overcast,260,2012-11-24 02:56:00
10:17 PM,33.8,23.0,65,29.91,10.0,West,16.1,23.0,N/A,,Overcast,280,2012-11-24 03:17:00
10:36 PM,33.8,21.2,60,29.92,10.0,West,8.1,23.0,N/A,,Overcast,280,2012-11-24 03:36:00
10:56 PM,33.8,21.2,60,29.92,10.0,WNW,15.0,25.3,N/A,,Overcast,300,2012-11-24 03:56:00
11:17 PM,33.8,21.2,60,29.93,10.0,WNW,12.7,21.9,N/A,,Overcast,290,2012-11-24 04:17:00
11:36 PM,33.8,23.0,65,29.93,10.0,WNW,9.2,-,N/A,,Overcast,300,2012-11-24 04:36:00
11:57 PM,33.8,21.2,60,29.93,10.0,WNW,8.1,20.7,N/A,,Overcast,290,2012-11-24 04:57:00